Minot, ND

3:31 PM CDT on August 28, 2016 (GMT -0500)
Minot International

Weather History for KMOT - January, 2013

Change the Weather History Date:

Sunday, January 13, 2013

  Actual Average Record
Temperature  
Mean Temperature 0 °F 12 °F  
Max Temperature 5 °F 20 °F 46 °F (1944)
Min Temperature -5 °F 3 °F -47 °F (1916)
Degree Days  
Heating Degree Days 65 53  
Month to date heating degree days 625 689  
Since 1 July heating degree days 4370 4284  
Moisture  
Dew Point -6 °F    
Average Humidity 74    
Maximum Humidity 83    
Minimum Humidity 65    
Precipitation  
Precipitation T in 0.02 in 0.15 in (1932)
Month to date precipitation T 0.23  
Year to date precipitation T 0.23  
Sea Level Pressure  
Sea Level Pressure 30.25 in    
Wind  
Wind Speed 10 mph (West)    
Max Wind Speed 17 mph    
Max Gust Speed 20 mph    
Visibility 9 miles    
Events Snow    
T = Trace of Precipitation, MM = Missing Value Source: NWS Daily Summary

Daily Weather History Graph

Daily Weather History Graph

Search for Another Location

Airport or City:

Trip Planner

Search our weather history database for the weather conditions in past years. The results will help you decide how hot, cold, wet, or windy it might be!

Date:

Astronomy

Jan. 13, 2013 Rise Set
Actual Time 8:32 AM CST 5:16 PM CST
Civil Twilight 7:56 AM CST 5:51 PM CST
Nautical Twilight 7:17 AM CST 6:30 PM CST
Astronomical Twilight 6:40 AM CST 7:08 PM CST
Moon 9:18 AM CST (1/13) 8:12 PM CST (1/13)
Length of Visible Light 9h 55m
Length of Day
8h 44m
Waxing Crescent, 5% of the Moon is Illuminated
Jan 13
Waxing Crescent
Jan 18
First Quarter
Jan 26
Full
Feb 3
Last Quarter
Feb 10
New

Hourly Weather History & Observations

Time (CST) Temp. Windchill Dew Point Humidity Pressure Visibility Wind Dir Wind Speed Gust Speed Precip Events Conditions
12:54 AM -2.9 °F -21.6 °F -11.0 °F 68% 30.25 in 10.0 mi SW 12.7 mph - N/A   Clear
1:54 AM -4.0 °F -16.3 °F -11.0 °F 72% 30.26 in 10.0 mi WSW 5.8 mph - N/A   Clear
2:54 AM -4.0 °F -12.4 °F -11.0 °F 72% 30.26 in 10.0 mi WSW 3.5 mph - N/A   Mostly Cloudy
3:54 AM -4.0 °F - -11.0 °F 72% 30.24 in 10.0 mi Calm Calm - N/A   Partly Cloudy
4:54 AM -2.0 °F -16.6 °F -7.1 °F 79% 30.22 in 10.0 mi WSW 8.1 mph - N/A   Mostly Cloudy
5:54 AM -0.9 °F -11.0 °F -7.1 °F 75% 30.22 in 10.0 mi West 4.6 mph - N/A   Clear
6:54 AM -0.0 °F -14.2 °F -6.0 °F 76% 30.23 in 10.0 mi West 8.1 mph - N/A   Overcast
7:54 AM -2.0 °F -15.4 °F -8.0 °F 76% 30.25 in 10.0 mi West 6.9 mph - N/A   Mostly Cloudy
8:54 AM -0.9 °F -19.1 °F -7.1 °F 75% 30.27 in 10.0 mi West 12.7 mph - N/A   Overcast
9:54 AM 1.0 °F -16.6 °F -5.1 °F 75% 30.28 in 10.0 mi WNW 12.7 mph - N/A   Overcast
10:54 AM 1.9 °F -15.5 °F -2.9 °F 80% 30.29 in 4.0 mi WNW 12.7 mph - 0.00 in Snow Light Snow
11:21 AM 3.2 °F -13.9 °F -2.2 °F 78% 30.14 in 8.0 mi NW 12.7 mph - 0.00 in   Overcast
11:54 AM 3.0 °F -13.3 °F -2.0 °F 80% 30.28 in 4.0 mi NW 11.5 mph - 0.00 in   Haze
12:07 PM 3.2 °F -13.1 °F -2.2 °F 78% 30.13 in 2.0 mi NW 11.5 mph - 0.00 in Snow Light Snow
12:54 PM 3.9 °F -14.3 °F -2.0 °F 76% 30.28 in 2.0 mi WNW 15.0 mph - 0.00 in   Haze
1:01 PM 3.2 °F -14.6 °F -0.4 °F 85% 30.13 in 6.0 mi WNW 13.8 mph - N/A   Haze
1:54 PM 5.0 °F -13.0 °F -0.9 °F 76% 30.27 in 4.0 mi WNW 15.0 mph - N/A   Haze
2:51 PM 3.2 °F -14.6 °F -2.2 °F 78% 30.13 in 10.0 mi WNW 13.8 mph - N/A   Scattered Clouds
2:54 PM 3.0 °F -14.1 °F -2.9 °F 76% 30.28 in 10.0 mi WNW 12.7 mph - N/A   Partly Cloudy
3:54 PM 3.0 °F -14.1 °F -4.0 °F 73% 30.29 in 10.0 mi WNW 12.7 mph - N/A   Clear
4:54 PM 1.0 °F -14.0 °F -5.1 °F 75% 30.29 in 10.0 mi West 9.2 mph - N/A   Clear
5:54 PM -0.9 °F -19.9 °F -7.1 °F 75% 30.30 in 10.0 mi WNW 13.8 mph - N/A   Clear
6:54 PM -2.0 °F -20.5 °F -8.0 °F 76% 30.30 in 10.0 mi West 12.7 mph - N/A   Clear
7:54 PM -4.0 °F -21.2 °F -9.9 °F 76% 30.31 in 10.0 mi WSW 10.4 mph - N/A   Clear
8:54 PM -5.1 °F -22.5 °F -9.9 °F 80% 30.32 in 10.0 mi WSW 10.4 mph - N/A   Partly Cloudy
9:54 PM -5.1 °F -20.4 °F -9.9 °F 80% 30.31 in 10.0 mi WSW 8.1 mph - N/A   Mostly Cloudy
10:54 PM -4.0 °F -17.8 °F -9.0 °F 79% 30.31 in 10.0 mi WSW 6.9 mph - N/A   Overcast
11:54 PM -2.9 °F -16.5 °F -8.0 °F 79% 30.30 in 10.0 mi SW 6.9 mph - N/A   Overcast